星链-4259 (STARLINK-4259 )

导读

STARLINK-4259是美国SpaceX公司星链(Starlink)卫星互联网项目的组网卫星,于2022年7月7日发射升空,属于星链低轨通信星座的组成部分。 星链计划旨在为全球偏远地区提供低延迟高速宽带服务,这类卫星采用平板设计与霍尔推进技术,可自主避障,寿命结束后会再入大气层销毁。该卫星服务目前已在全球数十个国家落地商用。

Basic Information
目录编号:
52987
目录名称:
STARLINK-4259
国际标识:
2022-076B
轨道中心:
EARTH
卫星名称:
星链-4259
卫星全名:
星链-4259 (STARLINK-4259 )
卫星状态:
在轨 (已飞行1520 天)
发射日期:
2022-07-07 UTC
国别 :
美国 (US)
星等 :
--
Orbit Information
数据来源 国际轨道数据
星历时间: 2026-09-04T03:08:21+0800
9小时前
查看轨道信息
半长轴: 6848.878km
偏心率: 0.000132
轨道倾角: 53.162°
近地点辐角 94.536°
升交点赤经 15.527°
平近点角 265.579°
近地点: 469.836km
远地点: 471.646km
周期: 94.013分钟
每日圈数: 15.316997
Detailed Information
固有亮度:
5
最大亮度:
2.5
卫星平台:
Starlink v1.5
覆盖范围:
全球
运营商:
太空探索技术公司
运营商所在国:
美国
制造商(研发单位):
太空探索技术公司
制造商所在国:
美国
使用方式:
暂无
Satellite Introduction
星链(Starlink)计划是由太空探索技术公司(SpaceX)提出的一个巨型低轨卫星互联网星座项目,计划在2019年至2024年间在太空搭建由约1.2万颗卫星组成的“星链”网络,其中1584颗将部署在地球上空550千米处的近地轨道,并从2020年开始工作。该卫星仍在工作。
2D Orbit Map
3D Orbit Map
Orbit Altitude Analysis Chart
Orbit Inclination Analysis Chart
Orbit Comprehensive Analysis Chart
View Comprehensive Chart
Conjunction Data List
Event ID Objects TCA Miss Dist (km) Collision Risk Probability Collision Risk Index (CRI) Action
CDM_260903-053104-793705-298722
OBJECT F (47937)
2026-09-03T
05:31:10+0000
1.923 km
极远距离
2.996803E-6 低风险 0.45
CDM_260905-060105-298706-524421
2026-09-05T
06:01:52+0000
2.517 km
极远距离
1.418951E-6 低风险 0.38
CDM_260904-203105-298706-973921
2026-09-04T
20:31:30+0000
2.990 km
极远距离
1.08718E-6 低风险 0.36
CDM_260904-073405-298706-770521
2026-09-04T
07:34:22+0000
2.785 km
极远距离
8.852063E-7 极低风险 0.34